[[{"header":{"parameterUnit":"m.s-1","parameterCategory":1,"la1":30.2992,"la2":30.254,"lo1":-89.0895,"lo2":-89.0443,"dy":0.0025,"dx":0.0025,"nx":19,"ny":19,"refTime":"2026-05-16T03:00:00:Z","depth":0,"parameterNumber":2,"parameterNumberName":"U-component_of_WINDS"},"data":[0,0,0,-2.8011,-2.8011,-2.8007,-2.8007,-2.8013,-2.8014,0,0,0,0,0,0,0,0,0,0,0,-2.8019,-2.8019,-2.8011,-2.8011,-2.8007,-2.8007,-2.8013,-2.8014,0,0,0,0,0,0,0,0,0,0,0,-2.8018,-2.8019,-2.8019,-2.8011,-2.8007,-2.8007,-2.8013,-2.8012,0,0,0,0,0,0,0,0,0,0,-2.8014,-2.8028,-2.8019,-2.8019,-2.8011,-2.8007,-2.8007,-2.8012,-2.8012,-2.802,0,-2.8029,0,-2.8022,-2.8015,-2.8015,0,0,0,-2.8005,-2.8028,-2.8021,-2.8019,-2.8011,-2.8007,-2.8007,-2.8012,-2.8012,-2.8021,-2.8029,-2.8029,-2.8022,-2.8015,-2.8015,-2.8079,-2.808,0,0,-2.8005,-2.8021,-2.802,-2.8021,-2.8023,-2.8007,-2.8007,-2.8012,-2.8022,-2.8029,-2.8029,-2.8022,-2.8015,-2.8015,-2.8079,-2.8079,0,0,0,-2.801,-2.8022,-2.8014,-2.8021,-2.802,-2.8007,-2.8007,-2.8022,-2.8018,-2.8029,-2.8022,-2.8015,-2.8015,-2.8078,-2.8079,-2.8121,0,0,0,-2.801,-2.8024,-2.8015,-2.8024,-2.802,-2.8021,-2.8017,-2.8018,-2.8018,-2.8022,-2.8015,-2.8015,-2.8077,-2.8079,-2.8118,-2.8137,0,0,0,-2.8016,-2.8025,-2.8027,-2.8025,-2.8024,-2.802,-2.8016,-2.8017,-2.8014,-2.8015,-2.8015,-2.8077,-2.8078,-2.8116,-2.8134,-2.8158,0,0,0,-2.8028,-2.8064,-2.8028,-2.8065,-2.8024,-2.8047,-2.8016,-2.8032,-2.8038,-2.8015,-2.8078,-2.8079,-2.8115,-2.8131,-2.8156,-2.8181,-2.8193,0,0,-2.8082,-2.8071,-2.8092,-2.8059,-2.8092,-2.8046,-2.8085,-2.8075,-2.8061,-2.8074,-2.8075,-2.8119,-2.8133,-2.8158,-2.8259,-2.8269,0,0,0,-2.8114,-2.8129,-2.8134,-2.8141,-2.8135,-2.8132,-2.8115,-2.8112,-2.8122,-2.8071,-2.8135,-2.8143,-2.8157,-2.8168,-2.8176,-2.8186,-2.8085,-2.8085,-2.8085,-2.8211,-2.8192,-2.8225,-2.8205,-2.8213,-2.8196,-2.82,-2.8193,-2.817,-2.8186,-2.8189,-2.8253,-2.8267,-2.8273,-2.8284,-2.8202,-2.8202,-2.8203,-2.8203,-2.8286,-2.8304,-2.8276,-2.8297,-2.8277,-2.8295,-2.8281,-2.8266,-2.8279,-2.8249,-2.826,-2.8226,-2.8284,-2.8293,-2.8206,-2.8205,-2.8205,-2.8204,-2.8204,-2.8346,-2.8351,-2.8348,-2.8356,-2.8366,-2.8346,-2.8361,-2.8342,-2.8325,-2.8336,-2.8337,-2.8336,-2.8332,-2.8338,-2.8339,-2.8339,-2.8339,-2.8339,-2.8339,-2.8408,-2.8403,-2.8418,-2.8417,-2.8419,-2.8421,-2.8406,-2.8408,-2.8406,-2.8391,-2.8391,-2.8367,-2.8294,-2.8275,-2.8342,-2.8342,-2.8341,-2.8341,-2.8341,-2.8488,-2.8468,-2.8491,-2.8494,-2.8491,-2.8502,-2.8479,-2.8486,-2.8485,-2.8493,-2.8468,-2.8418,-2.8405,-2.8398,-2.8382,-2.8473,-2.8473,-2.8473,-2.8473,-2.8537,-2.853,-2.855,-2.8556,-2.856,-2.8542,-2.8569,-2.8559,-2.8545,-2.8544,-2.8529,-2.8507,-2.8501,-2.8491,-2.8483,-2.8467,-2.8578,-2.8578,-2.8578,-2.8585,-2.8578,-2.8604,-2.8591,-2.8588,-2.8586,-2.8611,-2.8619,-2.86,-2.8582,-2.8542,-2.8538,-2.8502,-2.8492,-2.847,-2.8457,-2.8428,0,0]},{"header":{"parameterUnit":"m.s-1","parameterCategory":1,"la1":30.2992,"la2":30.254,"lo1":-89.0895,"lo2":-89.0443,"dy":0.0025,"dx":0.0025,"nx":19,"ny":19,"refTime":"2026-05-16T03:00:00:Z","depth":0,"parameterNumber":3,"parameterNumberName":"V-component_of_WINDS"},"data":[0,0,0,4.3828,4.3829,4.3839,4.384,4.3857,4.3857,0,0,0,0,0,0,0,0,0,0,0,4.3828,4.3828,4.3828,4.3829,4.3839,4.384,4.3857,4.3857,0,0,0,0,0,0,0,0,0,0,0,4.3828,4.3828,4.3828,4.3829,4.3839,4.384,4.3857,4.3847,0,0,0,0,0,0,0,0,0,0,4.3836,4.3838,4.3828,4.3828,4.3829,4.3839,4.384,4.3847,4.3848,4.3854,0,4.386,0,4.3859,4.3859,4.3859,0,0,0,4.3826,4.3837,4.3838,4.3828,4.3829,4.3839,4.3834,4.3847,4.3849,4.3855,4.386,4.3861,4.3859,4.3859,4.3859,4.3903,4.3904,0,0,4.3826,4.3831,4.3837,4.3839,4.3838,4.3834,4.3834,4.3848,4.3854,4.386,4.3861,4.386,4.3859,4.3859,4.3903,4.3903,0,0,0,4.3826,4.383,4.3831,4.3838,4.384,4.3834,4.3835,4.3853,4.3853,4.3861,4.386,4.3859,4.3859,4.3903,4.3903,4.3925,0,0,0,4.3825,4.383,4.3831,4.3834,4.384,4.3847,4.3839,4.3852,4.3853,4.386,4.3859,4.386,4.3902,4.3903,4.3923,4.3934,0,0,0,4.3826,4.383,4.3833,4.3834,4.3839,4.3846,4.3847,4.3852,4.3852,4.3859,4.386,4.3902,4.3903,4.3922,4.3932,4.3948,0,0,0,4.3828,4.385,4.3833,4.3857,4.3839,4.386,4.3847,4.3862,4.3869,4.3859,4.3902,4.3903,4.3922,4.393,4.3947,4.3964,4.3971,0,0,4.3858,4.3854,4.3868,4.3853,4.3879,4.3858,4.3886,4.3888,4.3883,4.3897,4.3898,4.3924,4.3932,4.3948,4.4008,4.4014,0,0,0,4.3879,4.3889,4.3895,4.3904,4.3907,4.391,4.3908,4.3909,4.3921,4.3891,4.3933,4.3938,4.3947,4.3955,4.396,4.3968,4.3907,4.3907,4.3906,4.3928,4.3923,4.3946,4.3943,4.3952,4.395,4.3957,4.3958,4.3948,4.3958,4.3962,4.4,4.4009,4.4012,4.4021,4.397,4.397,4.397,4.397,4.3973,4.3988,4.3977,4.3996,4.399,4.4005,4.4005,4.3998,4.4012,4.3995,4.4003,4.3986,4.4019,4.4027,4.3972,4.3971,4.3971,4.3971,4.3971,4.4006,4.4012,4.4014,4.4028,4.4039,4.4034,4.4049,4.4043,4.4037,4.4044,4.4049,4.4049,4.4049,4.4047,4.4047,4.4047,4.4048,4.4048,4.4048,4.4039,4.4041,4.4055,4.4062,4.4068,4.4075,4.4075,4.408,4.4085,4.4079,4.4079,4.407,4.4023,4.4012,4.405,4.4049,4.4049,4.4049,4.4049,4.4088,4.4077,4.4098,4.4104,4.4113,4.4126,4.4118,4.413,4.4134,4.4142,4.4131,4.4097,4.4092,4.4088,4.4079,4.4131,4.4131,4.4131,4.4131,4.4117,4.4114,4.4136,4.4146,4.4156,4.4152,4.4177,4.4178,4.4176,4.4178,4.417,4.4157,4.4153,4.415,4.4145,4.4136,4.4202,4.4202,4.4202,4.4148,4.4146,4.4168,4.4168,4.4175,4.4181,4.4205,4.4218,4.4214,4.4205,4.418,4.4177,4.4157,4.415,4.4141,4.4133,4.4117,0,0]}]]